Regional Weather Roundup
Issued by NWS

Home | Current Version | Previous Version | Graphics & Text | Print | Product List | Glossary On
Versions: 1 2 3 4 5 6 7 8 9 10 11 12 13 14 15 16 17 18 19 20 21 22 23 24 25 26 27
000
ASUS45 KCYS 230510
RWRWY

WYOMING REGIONAL WEATHER ROUNDUP
NATIONAL WEATHER SERVICE CHEYENNE WY
1100 PM MDT SAT APR 22 2017

NOTE:  "FAIR" INDICATES FEW OR NO CLOUDS BELOW 12,000 FEET
WITH NO SIGNIFICANT WEATHER AND/OR OBSTRUCTIONS TO VISIBILITY.

WYZ001-230600-
YELLOWSTONE NATIONAL PARK

CITY           SKY/WX    TMP DP  RH WIND       PRES   REMARKS
LK YELLOWSTONE   N/A     28  25  88 CALM      30.10F
W YELLOWSTONE  NOT AVBL

$$
WYZ002>013-054>058-071-098>099-230600-
NORTHERN WYOMING

CITY           SKY/WX    TMP DP  RH WIND       PRES   REMARKS
JACKSON        FAIR      41  27  56 E3        30.06F
CODY           FAIR      45  37  73 VRB3      29.99F
GREYBULL       FAIR      47  36  65 W6        29.95F
WORLAND        FAIR      49  40  71 SE14      29.94F
SHERIDAN       FAIR      40  36  86 S5        29.95F
BUFFALO        FAIR      44  35  70 W9        29.98F
GILLETTE       FAIR      47  34  60 S16       29.97F
HULETT         FAIR      52  32  46 SW13      30.00F
NEWCASTLE      FAIR      46  28  49 SE14      30.06F

$$
WYZ014>020-022>026-101>103-230600-
CENTRAL WYOMING

CITY           SKY/WX    TMP DP  RH WIND       PRES   REMARKS
BIG PINEY      FAIR      37  21  52 CALM      30.10F
PINEDALE       FAIR      34  25  69 CALM      30.11F
DUBOIS         FAIR      39  21  48 NW9       30.05F WCI  33
LANDER         FAIR      50  28  42 W7        30.00S
RIVERTON       FAIR      46  29  51 CALM      30.00F
CASPER         FAIR      42  34  73 SW6       30.03F
DOUGLAS        FAIR      46  30  53 S10       30.05F

$$
WYZ021-027>030-104>119-230600-
SOUTHERN WYOMING

CITY           SKY/WX    TMP DP  RH WIND       PRES   REMARKS
EVANSTON       FAIR      41  29  62 S7        30.10F
KEMMERER         N/A     43  27  52 CALM      30.10F
FORT BRIDGER   FAIR      46  25  43 W3        30.13F
ROCK SPRINGS   FAIR      43  23  45 S5        30.09F
DIXON            N/A     39  27  61 E9        30.15F WCI  33
RAWLINS        FAIR      39  19  44 W7        30.10F WCI  34
SARATOGA       FAIR      32  21  64 S10       30.12F WCI  24
LARAMIE        FAIR      37  27  67 SE17      30.14F WCI  27
CHEYENNE       FAIR      41  28  60 S16       30.16F
TORRINGTON     FAIR      46  31  55 SE9       30.11F
PINE BLUFFS    FAIR      39  32  75 S9        30.17F WCI  33

$$




USA.gov is the U.S. government's official web portal to all federal, state and local government web resources and services.